Terminal Aerodrome Forecast
Issued by NWS Buffalo, NY

Home | Current Version | Previous Version | Text Only | Print | Product List | Glossary On
Versions: 1 2 3 4 5 6 7 8 9 10 11 12 13 14 15 16 17 18 19 20 21 22 23 24 25 26
000
FTUS41 KBUF 010300 AAA
TAFART
TAF AMD
KART 010314Z 0103/0124 17004KT P6SM FEW080
     FM011400 20010G16KT P6SM FEW040 FEW060
     FM012100 23010KT P6SM SCT250=

USA.gov is the U.S. government's official web portal to all federal, state and local government web resources and services.